www.pogodaiklimat.ru

Погода и климат >> Архив погоды >> Россия >> Тамбовская область >> Обловка


ПОГОДА в Обловке

  • Прогноз погоды в Обловке
  • Монитор погоды в Обловке

АРХИВ ПОГОДЫ в Обловке

Время (UTC), дата Ветер
(напр.,м/с)
 
Видим.   Явления Облачность Т
(С)
Тd
(С)
f
(%)
Тe
(С)
Тes
(С)
Комфортность P
(гПа)
Po
(гПа)
Тmin
(С)
Tmax
(С)
R
(мм)
R24
(мм)
S
(см)
06 16.08 ЮВ 2 10 км 8/3 600 м
[Sc diur, vesp Ac cuf]
+24.9 +16.3 59 +28 +31 жарко 1011.9 994.7
09 16.08 Ю 3 10 км 8/4 600 м
[Sc diur, vesp Ac cuf]
+30.8 +15.1 39 +33 +37 душно 1009.7 992.6
12 16.08 Ю 3 10 км 9/5 600 м
[Cb cap As op]
+30.2 +14.7 39 +32 +33 жарко 1010.2 993.3
15 16.08 ЮВ 2 10 км 10/10 600 м
[Cb cap]
+27.9 +16.1 49 +31 +31 душно 1008.6 991.6 +31.3
18 16.08 ЮВ 2 4000 м слаб. ливневой дождь 10/10 300 м
[Cb cap]
+25.0 +15.9 57 +28 +28 жарко 1010.5 993.3
21 16.08 В 2 10 км {ливн. осадки} 10/10 600 м
[Cb cap]
+23.6 +15.3 60 +27 +27 жарко 1009.0 991.7
00 17.08 В 2 10 км {ливн. осадки} 10/10 600 м
[Cb cap]
+22.3 +14.1 60 +26 +26 жарко 1008.5 991.1
03 17.08 В 3 10 км 8/6 600 м
[Cb cap Ac cuf]
+21.4 +14.0 63 +24 +24 комфорт 1008.2 990.8 +21.4 0.0
06 17.08 Ю 2 4000 м слаб. ливневой дождь 10/10 300 м
[Cb cap]
+21.8 +14.2 62 +25 +25 комфорт 1010.7 993.3
09 17.08 В 2 4000 м слаб. ливневой дождь {гроза} 10/4 300 м
[Cb cap Ac As]
+21.4 +17.7 79 +26 +28 душно 1010.5 993.0
12 17.08 СВ 2 10 км {гроза, ливн. осадки} 10/0
[Ac As]
+24.0 +16.4 62 +27 +30 жарко 1009.4 992.1
15 17.08 В 2 4000 м слаб. ливневой дождь 10/10 300 м
[Cb cap]
+22.6 +17.3 72 +27 +27 душно 1009.3 991.9 +24.5 1
18 17.08 В 2 10 км {ливн. осадки} 3/3 600 м
[Cb cap]
+17.1 +16.5 96 +17 +17 1009.6 992.0
21 17.08 ЮЗ 1 4000 м дымка ясно +14.8 +14.6 99 +15 +15 1008.9 991.1
00 18.08 Ю 1 4000 м дымка ясно +15.3 +15.0 98 +16 +16 1009.8 992.0
03 18.08 ЮЗ 1 4000 м дымка 8/0
[Ci fib]
+14.0 +13.6 97 +14 +15 1010.5 992.6 +13.5 2
06 18.08 Ю 1 10 км 4/0
[Cc]
+21.9 +19.1 84 +27 +32 душно 1012.1 994.7
09 18.08 Ю 3 10 км 9/6 600 м
[Cb cap Ci fib]
+25.3 +18.4 66 +30 +34 душно 1010.9 993.7
12 18.08 ЮЗ 2 10 км 8/4 600 м
[Cb cap Ci fib]
+27.9 +17.7 54 +32 +35 душно 1011.7 994.7
15 18.08 В 1 10 км 10/6 600 м
[Cb cap Ac cuf Cs]
+26.8 +18.4 60 +32 +32 очень
душно
1011.5 994.4 +28.4
18 18.08 ЮВ 3
{11}
10 км гроза без осадков {ливн. осадки} 10/10 600 м
[Cb cap]
+20.6 +18.5 88 +25 +25 комфорт 1013.3 995.7
21 18.08 З 2 4000 м дымка {гроза, ливн. осадки} 8/8 600 м
[Cb cap]
+19.2 +18.9 98 +22 +22 комфорт 1014.2 996.6
00 19.08 Ю 1 4000 м дымка {гроза, ливн. осадки} 6/3 600 м
[Cb cap Ci fib]
+17.8 +17.5 98 +19 +19 1014.4 996.7
03 19.08 С 1 4000 м дымка 10/10 300 м
[St]
+18.1 +17.7 98 +19 +19 1015.3 997.5 +17.8 2
06 19.08 С 3 4000 м дымка {ливн. осадки} 10/10 300 м
[St]
+20.2 +19.5 96 +24 +24 комфорт 1017.6 1000.0
09 19.08 С 3 10 км 8/3 600 м
[Cu med, cong Ac As Ci fib]
+24.5 +19.5 74 +30 +35 очень
душно
1016.8 999.5
12 19.08 СЗ 3 10 км 8/3 600 м
[Cb cap Ci ing]
+26.0 +17.4 59 +30 +32 душно 1018.6 1001.3
15 19.08 С 2 10 км 8/6 600 м
[Cb cap Ac cuf]
+23.8 +16.9 65 +27 +28 жарко 1017.9 1000.5 +26.9 0.0
18 19.08 СЗ 2 10 км 8/4 600 м
[Cb cap Ac lent]
+20.7 +17.3 81 +25 +25 комфорт 1020.3 1002.7
21 19.08 С 2 10 км 6/0
[Ac lent Ci fib]
+18.7 +17.0 90 +20 +20 1019.5 1001.7
00 20.08 С 2 10 км 6/0
[Ci fib]
+17.3 +16.7 96 +18 +18 1021.8 1004.0
03 20.08 С 1 10 км 8/0
[Ac lent]
+17.4 +16.0 91 +18 +19 1020.6 1002.7 +17.3
06 20.08 С 2 10 км 6/3 600 м
[Sc diur, vesp Ac cast]
+21.0 +16.2 74 +25 +28 комфорт 1021.6 1004.0
09 20.08 С 3 10 км 3/3 600 м
[Sc diur, vesp]
+24.5 +15.6 58 +28 +35 душно 1021.2 1003.7
12 20.08 С 3 10 км ясно +26.5 +16.4 54 +30 +37 душно 1021.3 1004.0
15 20.08 С 3 10 км ясно +25.3 +15.6 55 +28 +29 жарко 1020.6 1003.2 +27.1
18 20.08 С 2 10 км ясно +20.6 +14.5 68 +24 +24 комфорт 1023.0 1005.3
21 20.08 С 2 10 км ясно +18.3 +14.5 79 +19 +19 1022.5 1004.6
00 21.08 С 1 10 км ясно +16.5 +14.1 86 +17 +17 1023.2 1005.3
03 21.08 С 2 10 км ясно +16.6 +13.9 84 +17 +17 1023.5 1005.5 +16.5
06 21.08 С 3 10 км ясно +22.8 +15.9 65 +27 +33 душно 1024.3 1006.7
09 21.08 С 4 10 км ясно +26.5 +14.5 48 +29 +38 жарко 1022.0 1004.6
12 21.08 С 4 10 км ясно +28.5 +14.7 43 +31 +36 душно 1022.5 1005.3
15 21.08 СВ 3 10 км ясно +27.5 +14.6 45 +30 +30 жарко 1020.8 1003.5 +29.2
18 21.08 СВ 1 10 км ясно +22.0 +15.8 68 +26 +26 душно 1022.9 1005.3
21 21.08 С 2 10 км ясно +19.9 +15.1 74 +23 +23 комфорт 1021.4 1003.7
00 22.08 С 1 10 км ясно +17.0 +14.8 87 +18 +18 1023.2 1005.3
03 22.08 С 2 10 км ясно +16.2 +14.5 90 +16 +17 1022.2 1004.2 +15.5
06 22.08 С 1 10 км ясно +23.0 +16.1 65 +27 +35 душно 1022.8 1005.3
09 22.08 С 2 10 км 3/3 1000 м
[Cu hum]
+27.2 +14.0 44 +29 +38 жарко 1020.8 1003.4
12 22.08 СВ 2 10 км 1 балл +28.5 +15.0 44 +31 +38 душно 1021.2 1004.0
15 22.08 С 1 10 км 3/3 1000 м
[Cu hum]
+28.1 +15.0 45 +31 +31 душно 1019.2 1002.0 +29.2
18 22.08 С 2 10 км ясно +22.5 +15.6 65 +26 +26 жарко 1021.5 1004.0
21 22.08 С 1 10 км ясно +18.8 +15.9 83 +21 +21 комфорт 1020.3 1002.5
00 23.08 С 1 10 км ясно +18.6 +15.1 80 +21 +21 комфорт 1021.8 1004.0
03 23.08 С 2 10 км 5/0
[Ac cast]
+18.4 +14.0 76 +19 +20 1021.1 1003.2 +17.0

 

Местоположение метеостанции Обловка (Тамбовская область, Россия): широта 51.97 долгота 42.27 высота над уровнем моря 151 м.

В архиве по умолчанию представлена погода в Обловке за последнюю неделю. Архивные данные за месяц целиком и за предыдущие месяцы, начиная с января 2011 года, Вы можете получить, выбрав интересующий диапазон дат из раскрывающегося списка и нажав кнопку "Ввод!".


*Определитесь, кто Вы:
робот инопланетянин человек

Внимание! Время в таблицах - всемирное. Для получения местного времени необходимо прибавить поправку, которая равна 3 ч.

Смотрите также архив погоды в соседних городах и на ближайших метеорологических станциях:

Погода в Жердевке (Тамбовская область, Россия) (56 км)
Погода в Борисоглебске (Воронежская область, Россия) (68 км)
Погода в Балашове (Саратовская область, Россия) (77 км)
Погода в Кирсанове (Тамбовская область, Россия) (84 км)
Погода в Росташах (Саратовская область, Россия) (91 км)
Погода в Совхозе им. Ленина (Тамбовская область, Россия) (99 км)
Погода в Ртищево (Саратовская область, Россия) (108 км)
Погода в Тамбове (Тамбовская область, Россия) (112 км)
Погода в Урюпинске (Волгоградская область, Россия) (131 км)
Погода в Белинском (Пензенская область, Россия) (135 км)

Пояснения к столбцам:

Ветер - указаны скорость ветра в м/с - средняя за 10 мин, порывы в срок и между сроками (в фигурных скобках) и направление, откуда дует ветер: С - северный, СВ - северо-восточный, В - восточный, ЮВ - юго-восточный, Ю - южный, ЮЗ - юго-западный, З - западный, СЗ - северо-западный.
Видимость - горизонтальная дальность видимости в метрах или километрах. При видимости от 1 до 10 км при отсутствии осадков обычно наблюдается дымка, при ухудшении видимости до 1 км и менее - туман. В сухую погоду видимость может ухудшаться дымом, пылью или мглою.
Явления - указаны атмосферные явления, наблюдавшиеся в срок или в последний час перед сроком; фигурными скобками обозначены явления, наблюдавшиеся между сроками (за 1-3 часа до срока); квадратными скобками обозначены град или гололедные отложения с указанием их диаметра в мм.
Облачность - указаны через наклонную черту общая и нижняя облачность в баллах и высота нижней границы облаков в метрах; квадратными скобками обозначены формы облаков: Ci - перистые, Cs - перисто-слоистые, Cc - перисто-кучевые, Ac - высококучевые, As - высокослоистые, Sc - слоисто-кучевые, Ns - слоисто-дождевые, Cu - кучевые, Cb - кучево-дождевые. Подробнее классификацию облаков см. в Атласе облаков (PDF).
T - Температура воздуха - температура, измеренная на высоте 2 м над землей.
Td - Температура точки росы - температура, при понижении до которой содержащийся в воздухе водяной пар достигнет насыщения.
f - Относительная влажность воздуха - влажноcть воздуха, измеренная на высоте 2 м над землей.
Te - Эффективная температура - температура, которую ощущает одетый по сезону человек в тени. Характеристика душности погоды. При расчете учитывается влияние влажности воздуха и скорости ветра на теплоощущения человека.
Tes - Эффективная температура на солнце - температура, которую ощущает человек, с поправкой на солнечный нагрев. Характеристика знойности погоды. Зависит от высоты солнца над горизонтом, облачности и скорости ветра. Ночью, в пасмурную погоду, а также при ветре 12 м/с и более поправка равна нулю.
P - Атмосферное давление - приведенное к уровню моря атмосферное давление.
Po - Атмосферное давление - измеренное на уровне метеостанции атмосферное давление.
Tmin - Минимальная температура - минимум температуры воздуха на высоте 2 м над землей.
Tmax - Максимальная температура - максимум температуры воздуха на высоте 2 м над землей.
R - Количество осадков - Количество выпавших осадков за период времени, мм. При наведении курсора мыши на число - период времени, за который выпало указанное количество осадков.
R24 - Количество осадков - Количество выпавших осадков за 24 часа, мм.
S - Снежный покров - Высота снежного покрова, см. При наведении курсора мыши на число - состояние снежного покрова и степень покрытия местности в баллах.